This is the latest recevied weather packets stored in our database for station/object KS5S. If no packets are shown the sender has not sent any weather packets the latest 10 day(s).
| Time | Temp. | Humidity | Pressure | Rain* | Wind** | Luminosity | Snow |
|---|---|---|---|---|---|---|---|
| 1778015485 | 32.78° C | 54% | 1002.1 hPa | 0 mm | - | 685 W/m² | - |
| 1778015181 | 33.33° C | 53% | 1001.7 hPa | 0 mm | - | 662 W/m² | - |
| 1778014878 | 33.33° C | 55% | 1002.1 hPa | 0 mm | - | 648 W/m² | - |
| 1778014576 | 32.78° C | 54% | 1002.2 hPa | 0 mm | - | 811 W/m² | - |
| 1778014273 | 32.78° C | 56% | 1002.2 hPa | 0 mm | - | 652 W/m² | - |
| 1778013970 | 32.78° C | 55% | 1002.2 hPa | 0 mm | - | 648 W/m² | - |
| 1778013668 | 32.78° C | 58% | 1002.4 hPa | 0 mm | - | 902 W/m² | - |
| 1778013364 | 32.78° C | 57% | 1002.3 hPa | 0 mm | - | 777 W/m² | - |
| 1778013061 | 32.78° C | 57% | 1002.2 hPa | 0 mm | - | 581 W/m² | - |
| 1778012757 | 32.78° C | 58% | 1002.6 hPa | 0 mm | - | 786 W/m² | - |
| 1778012453 | 32.78° C | 56% | 1002.5 hPa | 0 mm | - | 814 W/m² | - |
| 1778012150 | 32.78° C | 56% | 1002.6 hPa | 0 mm | - | 834 W/m² | - |
| 1778011848 | 32.78° C | 57% | 1002.5 hPa | 0 mm | - | 850 W/m² | - |
| 1778011545 | 32.78° C | 55% | 1002.7 hPa | 0 mm | - | 853 W/m² | - |
| 1778011242 | 32.22° C | 59% | 1002.5 hPa | 0 mm | - | 928 W/m² | - |
| 1778010938 | 31.67° C | 59% | 1002.6 hPa | 0 mm | - | 776 W/m² | - |
| 1778010636 | 31.67° C | 58% | 1002.8 hPa | 0 mm | - | 691 W/m² | - |
| 1778010333 | 31.67° C | 60% | 1002.6 hPa | 0 mm | - | 723 W/m² | - |
| 1778010028 | 31.67° C | 60% | 1002.6 hPa | 0 mm | - | 1027 W/m² | - |
| 1778009726 | 31.11° C | 60% | 1003 hPa | 0 mm | - | 658 W/m² | - |
| 1778009423 | 31.67° C | 62% | 1003 hPa | 0 mm | - | 609 W/m² | - |
| 1778009121 | 31.11° C | 61% | 1003 hPa | 0 mm | - | 358 W/m² | - |
| 1778008819 | 31.11° C | 63% | 1002.9 hPa | 0 mm | - | 449 W/m² | - |
| 1778008517 | 31.11° C | 62% | 1003 hPa | 0 mm | - | 581 W/m² | - |
| 1778008215 | 30.56° C | 65% | 1002.9 hPa | 0 mm | - | 361 W/m² | - |
* Rain latest hour (hover to see other rain measurements)
** Current wind speed in m/s (hover to see current wind gust speed)